STARLINK-34049, 64042

Orbit data source: Space-Track

STARLINK-34049, 64042 is a payload satellite owned by SpaceX/Seattle (US) in LEO that was launched on Fri, 16 May 2025 UTC via an FALCON 9 launch vehicle from the Air Force Western Test Range (AFWTR). Payload-class satellites include a variety of spacecraft equipped with specific instruments for various scientific and technological missions. These include communications satellites like Starlink; space stations such as the ISS; scientific satellites like the Hubble; Earth observation satellites from companies like Planet Labs, Umbra, and HawkEye 360; GPS; miniature CubeSats for education and research; and military/defense satellites.

Loading next visibility...
Identifier
64042, 2025-102W
Orbit
LEO
Country
Flag of USUS
Related business
Manufacturer
SpaceX/Seattle
Mission
Operational Commercial Communications
Bus & Motor
STARLINK V2MO, Unknown motor
Mass
575 kg wet, ~530 kg dry
Launch date (UTC)
2025-05-16 (1 year ago)
Launch vehicle
FALCON 9
Launch site
Air Force Western Test Range (AFWTR)
Object type
Payload
Rocket body
Debris
Shape & HBR
Box + 2 Pan, 17.7 m
Radar Cross Section
36.964 m², Large (>1 m²)

Expand to show TLE details & history
Last TLE update: 12 hours ago

TLE from 12 hours ago
0 STARLINK-34049
1 64042U 25102W   26171.40540646  .00002578  00000-0  22370-3 0  9991
2 64042  69.9999 215.6433 0004091 266.8475  93.2216 14.98335784 61333
Epoch: 2026-06-20T09:43Z
TLE epoch observation values (Epoch: 2026-06-20T09:43:47.118Z)
Latitude
-0.00001°
Longitude
161.07647°
Altitude
574.623 km
Speed
7.574 km/s
True Right ascension
14h 22m 34s
True Declination
0° 00' 00"
Sunlit
Object was in full shadow at epoch
Visualization orbit readout
Latitude
Unknown
Longitude
Unknown
Altitude
Unknown
Speed
Unknown
Apparent Right ascension
Unknown
Apparent Declination
Unknown
Sunlit
N/A
Visualization observer readout
Local Sidereal Time
08:33:48
Azimuth
Unknown
Elevation
Unknown
Doppler factor
Unknown
Orbital elements
Apogee altitude
572.829 km
Perigee altitude
567.144 km
Semi-major axis
6,948.123 km
Eccentricity
0.00041
Inclination
69.9999°
RAAN
215.6433°
Arg. of periapsis
266.8475°
True anomaly
93.2684°
Mean anomaly
93.2216°
Eccentric anomaly
93.245°
Mean motion
3.7475 °/min
Orbital period
96.06 mins
BSTAR
0.0002237
Loading maneuver chart data...
Computing Atmospheric mass density...
Loading historical data...
Loading historical data...
Loading historical data...
Loading historical data...
Loading historical data...
Loading historical data...
Loading historical data...

Documentation

Showing up to 5 results
|